World > North America > United States > Iowa > Finchford

Hourly Finchford, IA Regional Weather

Feedback E-mail the Weather

Quick WX

Finchford, IA Weather Maps

°F °C°F °C
Finchford Weather Map
UTC Time: 8/13/2022, 11:58
Your Time:

Finchford, IA Regional Weather

Expires:202208131200;;022182
ASUS43 KDMX 131106
RWRIA 

WEATHER ROUNDUP FOR IOWA
NATIONAL WEATHER SERVICE DES MOINES IA
600 AM CDT SAT AUG 13 2022

NOTE: "FAIR" INDICATES FEW OR NO CLOUDS BELOW 12,000 FEET WITH NO
SIGNIFICANT WEATHER AND/OR OBSTRUCTIONS TO VISIBILITY.

* - THESE STATIONS ARE NOT NWS STATIONS...THUS NOT UNDER NWS
QUALITY CONTROL.  THEY ALSO DO NOT REPORT WEATHER SUCH 
AS PRECIPITATION OR FOG.  


IAZ007>011-017>019-026>030-037>042-050>054-066-131200-
   NORTHEAST IOWA
  
CITY           SKY/WX    TMP DP  RH WIND       PRES   REMARKS
CEDAR RAPIDS   MOCLDY    64  58  80 S9        30.04F                  
CHARLES CITY * CLOUDY    66  66 100 S16       29.98S                  
CLINTON *      CLEAR     62  61  96 S8        30.10S                  
DECORAH *      MOCLDY    64  64 100 S13G23    29.97F                  
DUBUQUE        PTCLDY    63  60  90 S14       30.06F                  
OELWEIN *      CLOUDY    64  63  94 S14       30.03R                  
WATERLOO       MOCLDY    67  63  87 S15G25    29.98F                  
$$
 

SKY/WX - Weather  TMP - Temperature  DP - Dew Point  RH - Humidity
WIND - Wind Direction/Speed PRES - Barometric Pressure VSB - Visibility
WCI - Wind Chill Index E13G22 Wind - East Wind 13 mph/Gusts of 22 mph

Trending Headlines

Finchford Radar Loop



Finchford Quick Facts


National Two Day Weather Forecast


E-mail the Finchford Weather Forecast

Voice your opinion or tell us about page issues...